[[{"header":{"parameterUnit":"m.s-1","parameterCategory":2,"la1":30.2992,"la2":30.254,"lo1":-89.0895,"lo2":-89.0443,"dy":0.0025,"dx":0.0025,"nx":19,"ny":19,"refTime":"2026-05-02T21:00:00:Z","depth":"0","parameterNumber":2,"parameterNumberName":"U-component_of_CURRENTS"},"data":[0,0,0,-0.4115,-0.412,-0.4382,-0.4383,-0.4495,-0.4495,0,0,0,0,0,0,0,0,0,0,0,-0.4029,-0.403,-0.4115,-0.412,-0.4381,-0.4383,-0.4496,-0.4495,0,0,0,0,0,0,0,0,0,0,0,-0.4028,-0.4029,-0.4031,-0.4121,-0.4381,-0.4383,-0.4496,-0.4363,0,0,0,0,0,0,0,0,0,0,-0.414,-0.4087,-0.4029,-0.4031,-0.4122,-0.4381,-0.4383,-0.4359,-0.4371,-0.4301,0,-0.4327,0,-0.4388,-0.4494,-0.4494,0,0,0,-0.416,-0.4078,-0.4129,-0.4031,-0.4124,-0.438,-0.4275,-0.4368,-0.4381,-0.4314,-0.433,-0.4336,-0.439,-0.4494,-0.4494,-0.4645,-0.4646,0,0,-0.4146,-0.4095,-0.4121,-0.4137,-0.4167,-0.4266,-0.4282,-0.4379,-0.4385,-0.433,-0.4339,-0.4391,-0.4494,-0.4494,-0.4643,-0.4645,0,0,0,-0.4077,-0.4085,-0.4141,-0.413,-0.4182,-0.4273,-0.4292,-0.4383,-0.4396,-0.4341,-0.4393,-0.4494,-0.4493,-0.4641,-0.4644,-0.4692,0,0,0,-0.407,-0.4042,-0.4134,-0.411,-0.418,-0.4317,-0.4293,-0.4391,-0.4404,-0.4392,-0.4494,-0.4493,-0.4639,-0.4642,-0.4686,-0.4557,0,0,0,-0.4021,-0.4038,-0.4058,-0.4106,-0.42,-0.4318,-0.4342,-0.4398,-0.4431,-0.4494,-0.4493,-0.4638,-0.4642,-0.4681,-0.4554,-0.4319,0,0,0,-0.3977,-0.4025,-0.4056,-0.4132,-0.4197,-0.4414,-0.4343,-0.4498,-0.457,-0.4494,-0.4639,-0.4643,-0.4679,-0.4553,-0.4322,-0.3826,-0.3773,0,0,-0.4017,-0.4029,-0.4077,-0.4111,-0.4278,-0.4382,-0.4579,-0.4618,-0.4603,-0.4592,-0.4599,-0.4688,-0.4554,-0.432,-0.4074,-0.4011,0,0,0,-0.4078,-0.411,-0.4169,-0.4266,-0.4417,-0.4538,-0.4682,-0.4705,-0.4754,-0.4655,-0.4762,-0.4674,-0.4522,-0.4235,-0.419,-0.411,-0.4663,-0.4663,-0.4662,-0.4037,-0.4132,-0.4218,-0.436,-0.449,-0.4691,-0.4759,-0.4814,-0.4859,-0.49,-0.4776,-0.47,-0.4413,-0.4368,-0.4303,-0.4926,-0.4926,-0.4927,-0.4927,-0.4043,-0.4038,-0.4198,-0.43,-0.4441,-0.4596,-0.4766,-0.4822,-0.4785,-0.4892,-0.4745,-0.4381,-0.4317,-0.4266,-0.4931,-0.493,-0.493,-0.4929,-0.4929,-0.3932,-0.3927,-0.4025,-0.413,-0.4227,-0.4428,-0.4358,-0.4573,-0.4665,-0.4628,-0.4143,-0.4136,-0.4007,-0.4526,-0.4524,-0.4523,-0.4522,-0.4521,-0.452,-0.3689,-0.3804,-0.3761,-0.3917,-0.3881,-0.3923,-0.4087,-0.4026,-0.3955,-0.4025,-0.402,-0.396,-0.457,-0.4489,-0.4497,-0.4501,-0.4504,-0.4506,-0.4508,-0.3401,-0.3471,-0.3372,-0.3329,-0.3297,-0.3162,-0.3382,-0.3183,-0.3149,-0.2976,-0.3185,-0.366,-0.3509,-0.3544,-0.3437,-0.317,-0.317,-0.317,-0.3169,-0.3114,-0.3186,-0.2919,-0.2757,-0.2651,-0.2753,-0.2393,-0.239,-0.2429,-0.2415,-0.261,-0.2701,-0.2758,-0.2577,-0.2633,-0.2515,-0.2021,-0.202,-0.202,-0.281,-0.2791,-0.2481,-0.2453,-0.2317,-0.2262,-0.1967,-0.1854,-0.188,-0.1994,-0.2607,-0.2655,-0.284,-0.2935,-0.2705,-0.279,-0.2618,0,0]},{"header":{"parameterUnit":"m.s-1","parameterCategory":2,"la1":30.2992,"la2":30.254,"lo1":-89.0895,"lo2":-89.0443,"dy":0.0025,"dx":0.0025,"nx":19,"ny":19,"refTime":"2026-05-02T21:00:00:Z","depth":"0","parameterNumber":3,"parameterNumberName":"V-component_of_CURRENTS"},"data":[0,0,0,-0.0493,-0.049,-0.0292,-0.0291,-0.0035,-0.0033,0,0,0,0,0,0,0,0,0,0,0,-0.0562,-0.0561,-0.0494,-0.049,-0.0292,-0.0291,-0.0035,-0.0033,0,0,0,0,0,0,0,0,0,0,0,-0.0562,-0.0561,-0.056,-0.0489,-0.0293,-0.0291,-0.0036,-0.018,0,0,0,0,0,0,0,0,0,0,-0.037,-0.0465,-0.0561,-0.056,-0.0488,-0.0293,-0.0291,-0.0186,-0.0171,-0.0132,0,-0.0114,0,-0.0078,-0.0018,-0.0017,0,0,0,-0.0464,-0.0478,-0.0407,-0.056,-0.0487,-0.0293,-0.0374,-0.0178,-0.016,-0.0111,-0.0111,-0.0101,-0.0074,-0.0017,-0.0016,0.0057,0.0056,0,0,-0.0475,-0.0536,-0.0419,-0.0396,-0.0452,-0.0381,-0.0369,-0.0167,-0.0167,-0.011,-0.0094,-0.0069,-0.0015,-0.0014,0.0057,0.0056,0,0,0,-0.0524,-0.0545,-0.0477,-0.0407,-0.0377,-0.0376,-0.0361,-0.0175,-0.0148,-0.0092,-0.0066,-0.0014,-0.0011,0.0058,0.0057,-0.018,0,0,0,-0.0529,-0.0573,-0.0483,-0.0518,-0.0381,-0.0281,-0.0375,-0.0162,-0.0138,-0.0068,-0.0014,-0.0009,0.0059,0.0058,-0.0171,-0.0213,0,0,0,-0.0568,-0.0578,-0.0556,-0.0522,-0.0445,-0.0283,-0.0243,-0.0155,-0.0124,-0.0017,-0.0009,0.006,0.0058,-0.0164,-0.0201,-0.006,0,0,0,-0.0633,-0.0648,-0.0558,-0.0572,-0.0447,-0.0399,-0.0244,-0.0182,-0.0108,-0.0013,0.0059,0.0057,-0.0161,-0.0194,-0.0057,0.0136,0.0136,0,0,-0.0694,-0.0657,-0.0665,-0.0581,-0.0595,-0.0423,-0.0446,-0.0271,-0.0123,0.0001,0.0003,-0.0174,-0.02,-0.0059,0.0015,0.0019,0,0,0,-0.0713,-0.0735,-0.0719,-0.0703,-0.0621,-0.0572,-0.0422,-0.0342,-0.0225,-0.009,-0.015,-0.0156,-0.006,0.0063,0.0065,0.0328,0.0048,0.0048,0.0048,-0.0884,-0.0842,-0.0894,-0.0846,-0.0809,-0.0683,-0.0622,-0.0482,-0.0361,-0.0347,-0.0336,-0.0368,-0.0251,-0.0244,0.0019,-0.0349,-0.035,-0.0351,-0.0351,-0.1035,-0.1074,-0.1041,-0.1071,-0.0996,-0.0985,-0.0818,-0.0723,-0.0561,-0.0506,-0.04,-0.0179,-0.0254,0.0026,-0.0366,-0.0363,-0.0361,-0.036,-0.0359,-0.1167,-0.1184,-0.1195,-0.1242,-0.1249,-0.1148,-0.1057,-0.0934,-0.0712,-0.0672,-0.0313,-0.0306,-0.0048,-0.0562,-0.0562,-0.0561,-0.0561,-0.0561,-0.056,-0.1282,-0.1301,-0.1365,-0.1409,-0.141,-0.1374,-0.1168,-0.0982,-0.064,-0.0475,-0.047,-0.0018,-0.0425,-0.0405,-0.0555,-0.0556,-0.0557,-0.0557,-0.0558,-0.1412,-0.141,-0.1493,-0.1517,-0.1524,-0.1433,-0.1247,-0.0749,-0.0504,-0.0258,0.0139,-0.0294,-0.0132,-0.013,-0.0098,-0.0158,-0.0158,-0.0158,-0.0158,-0.1482,-0.1501,-0.1554,-0.1576,-0.1572,-0.1444,-0.101,-0.0527,0.01,0.0404,0.0444,0.0481,0.0453,0.0651,0.0636,0.0686,0.0826,0.0827,0.0829,-0.1545,-0.1543,-0.157,-0.1591,-0.157,-0.1384,-0.0915,-0.0208,0.0626,0.0888,0.0767,0.0725,0.0789,0.0725,0.1042,0.0999,0.1084,0,0]}],[{"header":{"parameterUnit":"m.s-1","parameterCategory":2,"la1":30.2992,"la2":30.254,"lo1":-89.0895,"lo2":-89.0443,"dy":0.0025,"dx":0.0025,"nx":19,"ny":19,"refTime":"2026-05-02T21:00:00:Z","depth":"2","parameterNumber":2,"parameterNumberName":"U-component_of_CURRENTS"},"data":[0,0,0,-0.258,-0.2583,-0.2571,-0.257,-0.2448,-0.2448,0,0,0,0,0,0,0,0,0,0,0,-0.2544,-0.2545,-0.258,-0.2583,-0.2571,-0.257,-0.2448,-0.2448,0,0,0,0,0,0,0,0,0,0,0,-0.2544,-0.2545,-0.2546,-0.2583,-0.2571,-0.257,-0.2448,-0.2466,0,0,0,0,0,0,0,0,0,0,-0.2482,-0.247,-0.2545,-0.2546,-0.2584,-0.2572,-0.257,-0.2467,-0.2464,-0.2447,0,-0.2472,0,-0.2508,-0.2444,-0.2444,0,0,0,-0.2507,-0.2472,-0.2514,-0.2546,-0.2585,-0.2572,-0.2555,-0.2466,-0.2463,-0.2443,-0.2471,-0.2468,-0.2506,-0.2444,-0.2443,-0.2638,-0.2641,0,0,-0.2508,-0.2489,-0.2516,-0.2513,-0.2616,-0.2556,-0.2556,-0.2464,-0.2448,-0.2471,-0.2467,-0.2504,-0.2443,-0.2443,-0.2636,-0.2639,0,0,0,-0.2561,-0.2489,-0.2531,-0.2516,-0.2552,-0.2558,-0.2557,-0.245,-0.2478,-0.2466,-0.2502,-0.2443,-0.2442,-0.2633,-0.2637,-0.279,0,0,0,-0.2557,-0.2527,-0.2532,-0.2513,-0.2555,-0.2514,-0.2544,-0.2482,-0.2476,-0.2503,-0.2443,-0.2442,-0.263,-0.2635,-0.278,-0.2732,0,0,0,-0.2539,-0.2524,-0.2543,-0.2513,-0.2553,-0.2518,-0.2535,-0.248,-0.2502,-0.2444,-0.2442,-0.2628,-0.2634,-0.2771,-0.2721,-0.2576,0,0,0,-0.2488,-0.2512,-0.2542,-0.2595,-0.2554,-0.2628,-0.2535,-0.2549,-0.2513,-0.2443,-0.2631,-0.2637,-0.2768,-0.2714,-0.2573,-0.2265,-0.2253,0,0,-0.2493,-0.2511,-0.2554,-0.2585,-0.2685,-0.2622,-0.2726,-0.264,-0.2606,-0.2632,-0.2637,-0.2783,-0.272,-0.2576,-0.2616,-0.2592,0,0,0,-0.2542,-0.2565,-0.2606,-0.2674,-0.2737,-0.2794,-0.2753,-0.2784,-0.2841,-0.2633,-0.2864,-0.2818,-0.272,-0.2534,-0.252,-0.2666,-0.2665,-0.2664,-0.2664,-0.25,-0.2578,-0.2644,-0.275,-0.2816,-0.2912,-0.2951,-0.2996,-0.2969,-0.3081,-0.3009,-0.3084,-0.2905,-0.2885,-0.3144,-0.3145,-0.3145,-0.3146,-0.3146,-0.2524,-0.2555,-0.2674,-0.2759,-0.2886,-0.2972,-0.3136,-0.3172,-0.3209,-0.3253,-0.3151,-0.279,-0.2875,-0.316,-0.3157,-0.3156,-0.3154,-0.3153,-0.3152,-0.2486,-0.2495,-0.258,-0.2695,-0.2829,-0.2987,-0.3029,-0.3176,-0.3245,-0.3239,-0.2859,-0.2851,-0.2984,-0.3155,-0.3155,-0.3154,-0.3153,-0.3153,-0.3152,-0.2377,-0.2457,-0.2465,-0.2606,-0.2664,-0.2768,-0.2938,-0.293,-0.289,-0.2908,-0.2904,-0.308,-0.308,-0.2981,-0.3142,-0.3144,-0.3145,-0.3146,-0.3147,-0.2245,-0.2272,-0.2292,-0.2327,-0.2436,-0.2398,-0.2583,-0.2473,-0.2463,-0.2353,-0.2667,-0.2683,-0.2526,-0.2536,-0.2424,-0.2429,-0.2429,-0.2428,-0.2428,-0.2103,-0.2131,-0.2101,-0.2109,-0.2141,-0.2221,-0.2001,-0.1959,-0.2041,-0.2067,-0.2084,-0.2115,-0.2149,-0.1973,-0.1997,-0.1874,-0.1736,-0.1735,-0.1734,-0.1959,-0.2,-0.1906,-0.1959,-0.2001,-0.1959,-0.1689,-0.148,-0.1509,-0.172,-0.2091,-0.2357,-0.2451,-0.2487,-0.2254,-0.2278,-0.2094,0,0]},{"header":{"parameterUnit":"m.s-1","parameterCategory":2,"la1":30.2992,"la2":30.254,"lo1":-89.0895,"lo2":-89.0443,"dy":0.0025,"dx":0.0025,"nx":19,"ny":19,"refTime":"2026-05-02T21:00:00:Z","depth":"2","parameterNumber":3,"parameterNumberName":"V-component_of_CURRENTS"},"data":[0,0,0,-0.0429,-0.0427,-0.0282,-0.0281,-0.0065,-0.0063,0,0,0,0,0,0,0,0,0,0,0,-0.0483,-0.0482,-0.043,-0.0427,-0.0282,-0.0281,-0.0065,-0.0063,0,0,0,0,0,0,0,0,0,0,0,-0.0483,-0.0482,-0.0482,-0.0426,-0.0282,-0.0281,-0.0066,-0.0177,0,0,0,0,0,0,0,0,0,0,-0.032,-0.0389,-0.0482,-0.0482,-0.0426,-0.0282,-0.0281,-0.0183,-0.017,-0.0129,0,-0.0122,0,-0.0095,-0.005,-0.0049,0,0,0,-0.0404,-0.0399,-0.0356,-0.0482,-0.0425,-0.0283,-0.0341,-0.0176,-0.0162,-0.0112,-0.0119,-0.0111,-0.0091,-0.0049,-0.0048,0.0119,0.0119,0,0,-0.0412,-0.0452,-0.0366,-0.0348,-0.0407,-0.0346,-0.0337,-0.0167,-0.0163,-0.0118,-0.0106,-0.0088,-0.0047,-0.0046,0.0118,0.0119,0,0,0,-0.045,-0.0458,-0.0419,-0.0357,-0.0337,-0.0342,-0.0332,-0.017,-0.0157,-0.0104,-0.0085,-0.0046,-0.0044,0.0118,0.0119,-0.0057,0,0,0,-0.0454,-0.0481,-0.0423,-0.0444,-0.0341,-0.0258,-0.0339,-0.0168,-0.0148,-0.0086,-0.0046,-0.0042,0.0118,0.0118,-0.0053,-0.0145,0,0,0,-0.0486,-0.0484,-0.0473,-0.0447,-0.0393,-0.026,-0.0236,-0.0163,-0.0138,-0.0049,-0.0041,0.0117,0.0118,-0.005,-0.0138,-0.0081,0,0,0,-0.0521,-0.0539,-0.0475,-0.0485,-0.0395,-0.0339,-0.0237,-0.0176,-0.0112,-0.0045,0.0118,0.0119,-0.0049,-0.0133,-0.0078,0.002,0.0015,0,0,-0.0569,-0.0545,-0.0552,-0.0491,-0.0492,-0.0356,-0.0327,-0.0198,-0.0076,0.0067,0.0072,-0.0055,-0.0137,-0.0081,0.0069,0.0062,0,0,0,-0.0583,-0.0598,-0.0583,-0.0565,-0.0492,-0.0435,-0.0295,-0.0216,-0.0086,-0.0035,0.0013,-0.0032,0.0008,0.0076,0.0071,0.0123,0.0122,0.0122,0.0122,-0.0702,-0.0667,-0.0696,-0.0649,-0.0607,-0.0475,-0.0408,-0.026,-0.0149,-0.0105,-0.0126,-0.014,-0.007,-0.0072,-0.0057,-0.0058,-0.0059,-0.0059,-0.006,-0.0806,-0.0831,-0.0792,-0.0809,-0.0733,-0.0688,-0.051,-0.0419,-0.0277,-0.0204,-0.0154,-0.0053,-0.0088,-0.0072,-0.007,-0.0068,-0.0067,-0.0066,-0.0065,-0.0897,-0.0909,-0.0911,-0.0935,-0.0928,-0.0817,-0.0748,-0.061,-0.0427,-0.0409,-0.0197,-0.0192,-0.0244,-0.0343,-0.0343,-0.0343,-0.0343,-0.0344,-0.0344,-0.0987,-0.0993,-0.1046,-0.106,-0.1082,-0.1047,-0.0878,-0.0751,-0.0509,-0.0362,-0.0357,-0.0233,-0.0224,-0.0254,-0.0347,-0.0346,-0.0346,-0.0345,-0.0345,-0.1088,-0.1083,-0.1171,-0.1207,-0.1236,-0.1182,-0.1024,-0.069,-0.0532,-0.0378,-0.0272,-0.0273,-0.0183,-0.0174,-0.0198,-0.0271,-0.0271,-0.0271,-0.0271,-0.1154,-0.1158,-0.1265,-0.1331,-0.1357,-0.1245,-0.0972,-0.0613,-0.0314,-0.0181,-0.0185,-0.0135,-0.0139,-0.0042,-0.0037,-0.0055,-0.0091,-0.0091,-0.0091,-0.1213,-0.1241,-0.1322,-0.1375,-0.1411,-0.1259,-0.094,-0.0452,-0.008,-0.0088,-0.0198,-0.025,-0.0183,-0.0187,-0.0038,-0.0031,-0.0059,0,0]}],[{"header":{"parameterUnit":"m.s-1","parameterCategory":2,"la1":30.2992,"la2":30.254,"lo1":-89.0895,"lo2":-89.0443,"dy":0.0025,"dx":0.0025,"nx":19,"ny":19,"refTime":"2026-05-02T21:00:00:Z","depth":"4","parameterNumber":2,"parameterNumberName":"U-component_of_CURRENTS"},"data":[0,0,0,-0.1619,-0.1622,-0.1752,-0.1752,-0.1835,-0.1835,0,0,0,0,0,0,0,0,0,0,0,-0.1574,-0.1575,-0.1619,-0.1623,-0.1752,-0.1752,-0.1834,-0.1835,0,0,0,0,0,0,0,0,0,0,0,-0.1573,-0.1575,-0.1576,-0.1623,-0.1752,-0.1752,-0.1834,-0.1755,0,0,0,0,0,0,0,0,0,0,-0.1638,-0.161,-0.1574,-0.1576,-0.1624,-0.1751,-0.1752,-0.1752,-0.176,-0.1756,0,-0.179,0,-0.1819,-0.184,-0.184,0,0,0,-0.1611,-0.1604,-0.1644,-0.1576,-0.1625,-0.1751,-0.169,-0.1757,-0.1766,-0.1766,-0.1792,-0.1796,-0.1821,-0.184,-0.1841,-0.1977,-0.1978,0,0,-0.1604,-0.1588,-0.1638,-0.165,-0.1677,-0.1686,-0.1694,-0.1763,-0.1774,-0.1792,-0.1798,-0.1822,-0.1841,-0.1841,-0.1976,-0.1977,0,0,0,-0.1591,-0.1583,-0.1623,-0.1646,-0.1679,-0.169,-0.17,-0.1771,-0.1787,-0.1799,-0.1823,-0.1841,-0.1842,-0.1975,-0.1976,-0.2047,0,0,0,-0.1587,-0.1577,-0.162,-0.161,-0.1679,-0.1738,-0.1706,-0.1782,-0.1791,-0.1823,-0.1841,-0.1843,-0.1974,-0.1976,-0.2043,-0.2051,0,0,0,-0.1565,-0.1574,-0.1596,-0.1609,-0.1671,-0.1738,-0.1757,-0.1785,-0.1806,-0.184,-0.1843,-0.1973,-0.1975,-0.2039,-0.2045,-0.2025,0,0,0,-0.1532,-0.1567,-0.1596,-0.1656,-0.167,-0.1779,-0.1757,-0.1837,-0.1875,-0.1842,-0.1974,-0.1976,-0.2038,-0.2042,-0.2023,-0.1731,0,0,0,-0.1552,-0.1569,-0.1608,-0.1637,-0.1744,-0.1759,-0.1876,-0.1913,-0.1905,-0.1941,-0.1945,-0.2044,-0.2045,-0.2024,-0.187,0,0,0,0,-0.1599,-0.1634,-0.1671,-0.1748,-0.1822,-0.1903,-0.1957,-0.1979,-0.2035,-0.1941,-0.2072,-0.207,-0.2054,-0.1879,-0.1988,-0.1987,-0.1987,-0.1987,-0.1986,-0.1597,-0.1661,-0.1741,-0.1837,-0.1913,-0.2017,-0.2065,-0.2107,-0.2109,-0.2153,-0.2149,-0.221,-0.2034,-0.2185,-0.2185,-0.2185,-0.2186,-0.2186,-0.2186,-0.1641,-0.1678,-0.1795,-0.1896,-0.1998,-0.2103,-0.2193,-0.221,-0.2252,-0.2251,-0.2231,-0.1995,-0.2194,-0.2192,-0.2191,-0.219,-0.219,-0.2189,-0.2189,-0.1614,-0.1634,-0.1736,-0.1885,-0.2019,-0.2144,-0.2196,-0.2275,-0.2295,-0.2302,-0.2075,-0.2236,-0.22,-0.2293,-0.2293,-0.2293,-0.2293,-0.2293,-0.2293,-0.1515,-0.1614,-0.1693,-0.1862,-0.1948,-0.2068,-0.22,-0.2201,-0.2259,-0.2107,-0.2315,-0.2244,-0.2241,-0.2206,-0.2293,-0.2293,-0.2293,-0.2293,-0.2293,-0.143,-0.1486,-0.1585,-0.1675,-0.1848,-0.1907,-0.2077,-0.2016,-0.1983,-0.189,-0.1975,-0.1991,-0.1918,-0.1922,-0.1872,-0.1864,-0.186,-0.1857,0,-0.1339,-0.1385,-0.148,-0.1565,-0.1635,-0.1792,-0.1693,-0.173,-0.1755,-0.1696,-0.1989,-0.209,-0.2098,-0.2022,-0.2019,-0.1963,0,0,0,-0.1273,-0.1323,-0.134,-0.1458,-0.1524,-0.154,-0.1654,-0.1575,-0.177,-0.1644,-0.1769,-0.1792,-0.2116,-0.2293,-0.2217,-0.2212,-0.2151,0,0]},{"header":{"parameterUnit":"m.s-1","parameterCategory":2,"la1":30.2992,"la2":30.254,"lo1":-89.0895,"lo2":-89.0443,"dy":0.0025,"dx":0.0025,"nx":19,"ny":19,"refTime":"2026-05-02T21:00:00:Z","depth":"4","parameterNumber":3,"parameterNumberName":"V-component_of_CURRENTS"},"data":[0,0,0,-0.0305,-0.0304,-0.0228,-0.0227,-0.0079,-0.0078,0,0,0,0,0,0,0,0,0,0,0,-0.0332,-0.0332,-0.0305,-0.0303,-0.0228,-0.0227,-0.0079,-0.0078,0,0,0,0,0,0,0,0,0,0,0,-0.0332,-0.0332,-0.0332,-0.0303,-0.0228,-0.0227,-0.008,-0.0145,0,0,0,0,0,0,0,0,0,0,-0.0223,-0.0268,-0.0332,-0.0332,-0.0303,-0.0228,-0.0227,-0.0149,-0.0141,-0.0105,0,-0.0107,0,-0.0095,-0.0068,-0.0068,0,0,0,-0.0285,-0.0275,-0.0252,-0.0332,-0.0303,-0.0228,-0.0257,-0.0145,-0.0136,-0.0094,-0.0105,-0.0099,-0.0093,-0.0067,-0.0067,0.0048,0.0048,0,0,-0.0289,-0.0313,-0.0258,-0.0247,-0.0299,-0.0259,-0.0255,-0.014,-0.0138,-0.0104,-0.0096,-0.009,-0.0067,-0.0065,0.0047,0.0048,0,0,0,-0.0314,-0.0317,-0.0297,-0.0253,-0.0246,-0.0257,-0.0252,-0.0143,-0.0136,-0.0094,-0.0088,-0.0066,-0.0064,0.0047,0.0048,-0.0063,0,0,0,-0.0315,-0.0332,-0.0299,-0.0312,-0.025,-0.0202,-0.0258,-0.0144,-0.0131,-0.0089,-0.0066,-0.0063,0.0047,0.0047,-0.0061,-0.0111,0,0,0,-0.0332,-0.0333,-0.033,-0.0314,-0.0289,-0.0204,-0.019,-0.0141,-0.0128,-0.0068,-0.0062,0.0047,0.0047,-0.0058,-0.0107,-0.0086,0,0,0,-0.0351,-0.0369,-0.0331,-0.0344,-0.029,-0.026,-0.0191,-0.0154,-0.0111,-0.0065,0.0047,0.0048,-0.0058,-0.0104,-0.0084,-0.0082,0,0,0,-0.0387,-0.0374,-0.0381,-0.0345,-0.0355,-0.0268,-0.0252,-0.0166,-0.0085,0.0016,0.0018,-0.0061,-0.0106,-0.0086,-0.0052,0,0,0,0,-0.04,-0.0415,-0.0408,-0.0403,-0.0359,-0.0321,-0.0233,-0.0178,-0.0089,-0.0059,-0.002,-0.0044,-0.0028,-0.0018,0.005,0.005,0.005,0.005,0.005,-0.0482,-0.0462,-0.049,-0.0464,-0.0438,-0.035,-0.03,-0.02,-0.0129,-0.0099,-0.0104,-0.0124,-0.0117,-0.0065,-0.0066,-0.0066,-0.0067,-0.0067,-0.0067,-0.0557,-0.0576,-0.0558,-0.0582,-0.053,-0.0504,-0.0367,-0.0302,-0.0201,-0.0152,-0.0131,-0.0099,-0.0077,-0.0075,-0.0073,-0.0072,-0.0072,-0.0071,-0.007,-0.0613,-0.0624,-0.0641,-0.0678,-0.0678,-0.0602,-0.0552,-0.0437,-0.03,-0.0282,-0.0207,-0.0169,-0.0191,-0.0257,-0.0257,-0.0257,-0.0258,-0.0258,-0.0258,-0.066,-0.0678,-0.0745,-0.0775,-0.0808,-0.0788,-0.0656,-0.0564,-0.0419,-0.0316,-0.0301,-0.0186,-0.018,-0.0198,-0.026,-0.026,-0.0259,-0.0259,-0.0259,-0.072,-0.0739,-0.0834,-0.0888,-0.0943,-0.0913,-0.0809,-0.0585,-0.0485,-0.037,-0.03,-0.0297,-0.0243,-0.0235,-0.0254,-0.0334,-0.0335,-0.0335,0,-0.0765,-0.0779,-0.0911,-0.0995,-0.1027,-0.0972,-0.0821,-0.0679,-0.0486,-0.0483,-0.0498,-0.0431,-0.0424,-0.0374,-0.0366,-0.0395,0,0,0,-0.0812,-0.0846,-0.0943,-0.1023,-0.1061,-0.088,-0.0768,-0.068,-0.0528,-0.0398,-0.034,-0.0339,-0.0343,-0.0267,-0.0176,-0.0169,-0.0192,0,0]}]]